Theta_e
285 284 284 283 283 283 282 282 281 281 280 280 280 279 280 280 280 279 279 279 279 278 278 278 278 278 279 278 278 278 278 277 277 276 277 277 277 277 277 276 276 276
284 284 284 283 283 283 282 282 281 281 280 280 280 280 280 280 280 279 279 279 278 278 278 278 277 277 277 278 277 277 276 276 276 278 276 276 276 276 276 276 275 275
283 283 283 283 283 282 281 281 281 281 281 280 280 280 280 280 279 279 279 278 278 277 277 277 277 276 277 277 277 276 276 275 275 275 276 275 275 275 275 275 275 275
283 283 283 282 282 281 281 281 280 280 280 280 280 280 280 280 279 279 279 279 277 277 276 276 276 276 276 276 276 276 275 275 275 275 275 275 276 275 275 275 275 274
283 283 282 282 282 281 281 281 280 280 280 280 280 280 280 279 278 278 277 277 277 276 276 276 275 275 275 275 275 275 275 275 274 274 274 274 274 275 275 275 274 273
283 283 282 282 282 281 281 281 281 280 280 279 280 279 278 278 278 277 277 276 276 276 275 275 275 275 275 274 274 274 275 274 274 273 273 273 273 274 275 274 273 273
282 282 282 282 281 281 281 280 280 280 280 279 279 278 278 278 277 277 277 276 276 276 275 275 274 274 274 274 274 273 274 273 273 273 272 273 273 273 273 273 273 273
282 282 281 281 281 280 280 280 280 280 279 278 278 277 277 277 277 277 276 276 276 275 275 274 274 274 273 273 273 272 272 273 272 272 272 272 272 272 272 274 272 272
282 281 281 280 280 280 279 279 279 278 278 278 277 277 277 277 277 276 276 276 275 275 274 273 273 273 272 272 272 272 271 271 272 272 272 271 271 271 271 272 271 271
281 281 281 280 280 280 279 279 278 278 278 277 277 277 276 276 277 277 276 275 274 274 273 273 272 272 272 272 272 271 271 272 271 272 271 271 271 271 271 271 270 270
281 281 281 280 280 279 279 278 278 277 277 277 277 277 276 276 276 276 275 275 274 273 273 272 272 272 272 271 271 271 271 271 271 271 271 271 271 271 274 270 270 270
281 281 280 280 280 280 280 279 278 277 277 277 277 277 276 275 275 275 275 274 273 273 272 272 271 271 271 270 270 271 271 271 271 271 271 271 271 271 270 271 270 270
281 281 281 281 280 280 279 278 277 277 277 276 277 277 275 274 274 274 274 273 273 272 272 272 272 271 270 269 270 270 271 271 271 270 270 270 270 270 271 271 270 270
281 281 281 281 281 280 279 278 277 277 277 276 276 276 275 275 275 275 274 273 273 273 273 272 271 270 269 269 270 271 271 270 270 270 270 270 270 270 270 270 270 270
281 282 282 281 280 279 278 278 277 277 277 276 276 275 276 275 275 275 273 273 273 273 272 272 271 270 270 270 270 270 271 271 270 270 270 269 269 269 269 269 269 269
282 282 281 280 279 278 278 277 277 276 276 276 276 275 275 274 274 274 274 273 273 272 271 270 270 270 273 276 275 271 270 271 271 270 270 269 269 268 269 269 269 269
282 281 281 280 279 279 278 277 276 276 276 276 275 275 274 274 274 274 273 272 272 272 271 271 270 271 276 278 278 278 272 271 270 269 270 270 269 269 269 269 269 269
281 281 280 280 279 278 278 277 276 276 275 275 275 274 274 273 273 273 273 272 272 271 271 270 270 274 278 279 280 279 276 271 270 269 270 271 271 270 269 269 269 269
281 280 280 279 279 278 277 276 276 275 275 275 274 274 273 272 273 273 272 271 271 271 270 269 269 276 278 280 280 281 280 275 271 271 271 271 271 271 270 270 269 269
280 280 279 279 279 278 277 276 275 275 275 275 274 274 273 273 273 272 272 271 271 270 270 269 269 274 279 280 281 281 281 279 272 272 272 272 272 271 270 270 270 269
280 280 279 279 278 278 276 276 275 275 275 274 274 274 273 273 272 272 271 271 270 270 269 268 268 275 278 280 281 281 281 280 274 274 272 272 272 272 271 271 270 270
280 280 280 279 278 277 276 276 276 275 275 274 273 273 273 273 272 271 271 270 270 268 268 268 268 276 278 279 281 281 282 277 274 274 272 272 271 272 272 272 271 269
280 280 279 279 278 277 276 276 276 275 275 274 272 273 273 272 271 270 270 269 268 268 267 268 266 273 278 279 280 281 280 274 273 273 272 271 270 270 270 270 269 269
281 281 280 279 278 277 277 277 277 276 275 274 273 273 272 272 271 270 269 269 268 267 267 267 266 270 277 279 279 280 279 273 273 272 271 270 269 270 269 269 268 271
281 281 281 280 279 278 278 277 277 276 275 273 273 273 273 272 269 269 268 267 267 267 269 268 266 268 275 278 279 280 279 273 272 271 270 269 268 267 268 268 268 270
281 280 280 279 278 278 278 277 277 275 274 273 272 272 272 270 268 268 267 266 265 265 266 267 266 265 268 277 278 279 280 274 272 270 269 268 267 267 267 268 268 267
Wind_Speed
9 7 9 9 8 8 9 9 7 8 7 7 8 7 7 6 5 7 7 6 6 6 4 4 4 4 5 5 5 5 5 6 5 4 5 6 5 5 6 5 5 5
8 8 7 7 7 6 6 7 8 9 8 7 7 7 6 6 5 7 7 7 6 5 4 4 4 4 4 5 5 6 5 5 6 3 6 6 4 5 5 5 5 4
8 8 9 10 10 9 8 6 6 7 8 7 7 6 7 6 7 6 7 7 7 6 5 4 4 4 4 5 5 5 6 5 5 4 5 5 4 5 4 5 5 5
8 9 9 8 8 9 8 8 6 6 6 8 7 6 6 6 7 8 7 6 7 5 4 3 4 4 4 5 5 6 5 5 3 4 5 4 4 4 4 4 4 5
10 9 7 7 7 7 8 9 9 8 8 7 7 6 7 8 8 8 7 7 6 5 4 4 3 4 4 5 5 6 4 5 3 4 5 5 3 4 3 5 4 4
6 7 7 8 9 10 9 9 8 9 8 8 8 7 6 7 8 8 8 8 5 5 4 3 4 3 4 5 5 5 5 6 3 4 4 4 3 3 3 4 4 4
10 9 9 7 8 7 8 8 7 7 7 7 6 7 7 8 8 8 8 7 6 5 4 4 4 4 4 5 5 5 5 4 3 4 5 3 4 3 3 3 3 3
10 8 8 8 8 8 8 7 7 7 6 6 7 7 7 8 8 7 7 7 6 5 4 4 4 4 4 5 6 5 4 3 4 4 4 3 3 3 3 2 3 3
9 9 9 9 9 8 8 8 7 6 5 7 7 7 5 7 8 8 8 7 6 5 4 4 4 4 3 4 4 5 5 3 4 4 4 3 3 3 2 2 3 2
10 9 11 10 10 9 10 8 7 6 6 6 6 6 7 6 7 8 7 7 6 5 4 4 4 4 3 4 4 4 4 4 4 4 3 3 3 2 2 2 3 2
11 11 12 11 11 9 10 9 8 7 6 7 7 7 6 7 7 7 7 7 8 7 6 5 5 4 4 4 3 3 4 4 4 4 3 3 3 3 3 3 2 2
12 12 13 13 12 11 11 10 9 8 7 6 7 9 7 7 8 7 7 7 6 6 6 5 5 5 4 4 4 4 3 3 4 4 3 3 3 3 3 2 2 1
13 13 13 12 12 11 10 9 9 8 8 8 7 8 9 8 6 6 5 7 6 6 6 7 6 5 5 4 4 4 4 4 4 4 3 3 3 2 1 1 1 1
13 12 12 12 10 10 10 9 8 8 8 7 7 8 8 8 9 8 6 6 6 7 7 6 6 5 4 4 4 4 4 4 4 4 3 3 2 1 1 1 1 2
11 11 10 11 11 11 10 10 9 9 7 7 7 7 6 7 6 6 7 7 6 7 7 6 6 6 5 6 5 5 5 5 4 4 4 4 2 1 1 1 2 3
12 11 11 11 11 11 11 10 9 9 8 8 8 7 7 6 6 6 7 7 8 7 6 6 6 5 6 11 9 6 5 5 5 5 4 3 3 3 3 3 3 3
12 12 12 13 12 11 10 11 10 9 8 7 7 6 8 7 7 8 7 7 8 8 8 6 6 5 11 13 14 13 7 5 5 5 4 4 4 4 4 4 3 3
12 12 13 12 11 12 11 10 9 8 8 8 7 7 7 6 8 9 8 7 6 7 7 7 6 8 14 14 15 14 11 6 5 4 4 5 4 5 4 4 4 4
11 12 12 11 11 11 10 9 9 9 9 9 10 8 6 8 10 9 9 7 8 9 8 7 6 10 14 15 15 15 14 10 5 5 5 5 5 5 5 5 4 5
11 10 11 11 10 10 9 10 10 11 10 8 7 7 8 8 7 9 8 9 9 9 8 7 7 10 15 15 15 15 15 12 5 5 5 5 7 5 5 6 5 5
11 11 12 10 10 10 10 10 11 9 9 8 8 10 11 11 11 10 10 9 8 7 7 7 7 12 15 16 15 16 16 13 6 6 5 6 6 7 6 6 5 5
12 11 11 10 11 10 11 11 11 11 11 9 7 7 6 5 5 6 8 9 8 7 7 9 7 14 15 15 15 15 17 7 6 6 5 5 6 7 7 6 5 5
12 12 12 11 11 11 12 12 13 11 9 7 8 9 9 9 10 9 8 8 8 9 9 8 6 12 16 16 15 16 12 6 6 5 5 6 6 6 5 5 5 5
11 11 11 11 12 14 15 14 11 8 10 9 12 11 11 12 9 8 7 8 9 10 10 10 9 11 16 16 16 17 12 7 6 6 7 6 6 7 6 6 6 12
11 12 13 14 14 15 13 13 12 12 9 8 9 8 9 6 6 7 7 7 8 9 8 9 8 9 15 16 17 17 13 6 7 6 7 8 6 6 6 6 6 8
10 12 12 12 13 11 9 10 7 6 8 9 8 7 7 6 6 7 8 8 7 7 8 9 8 7 9 17 17 17 17 8 6 7 9 9 7 6 6 6 6 6
Wind_Direction
155 154 150 147 148 150 151 151 154 143 139 138 137 146 137 139 128 112 109 102 100 102 104 98 95 95 95 91 93 91 85 90 84 79 82 84 82 89 86 84 75 91
160 151 144 135 135 142 150 151 151 145 142 142 139 133 133 129 125 119 118 110 104 103 99 93 91 99 98 97 96 93 84 80 78 63 82 79 87 86 88 88 89 77
156 152 151 153 156 156 151 147 139 141 139 141 134 134 136 133 126 118 114 114 110 103 95 98 97 92 96 99 96 92 94 89 86 80 82 83 79 83 82 86 77 74
162 159 154 152 152 151 148 138 136 134 133 136 147 148 140 137 129 122 113 110 110 105 106 102 107 99 100 103 101 91 94 90 102 98 89 68 64 82 75 84 85 67
160 153 150 148 149 146 144 143 147 151 149 144 137 145 142 139 130 122 119 115 114 118 117 119 108 107 110 107 106 106 98 95 80 83 87 79 56 82 78 85 81 74
151 148 149 153 155 152 150 151 154 152 148 150 157 148 147 138 131 129 128 124 125 127 126 125 119 114 113 109 101 100 105 95 95 93 86 92 79 68 89 87 85 78
155 152 154 153 150 150 145 150 155 153 156 154 143 156 151 142 135 133 129 128 130 136 140 144 136 129 118 112 105 104 100 108 102 100 101 93 95 72 72 88 89 91
154 151 150 151 150 147 147 154 159 161 157 154 160 160 155 142 136 132 129 132 134 141 149 145 136 128 124 114 117 116 108 109 107 107 103 103 98 88 71 87 114 107
152 154 153 155 152 152 156 161 162 160 164 164 163 159 149 141 137 133 135 134 136 147 149 146 135 126 126 120 127 125 123 115 118 116 117 114 104 116 124 133 107 127
159 156 157 160 160 163 163 165 162 165 168 167 163 155 145 134 132 136 136 143 146 153 154 145 133 128 130 132 134 131 130 133 127 119 122 127 136 159 153 139 144 137
164 165 165 168 166 165 168 164 165 164 171 170 162 156 146 139 139 140 145 153 158 161 157 151 151 146 137 136 133 135 137 135 130 127 127 142 160 167 161 149 160 164
170 171 173 171 169 170 171 170 164 167 169 171 173 154 149 150 148 154 160 163 160 160 156 155 152 152 150 147 144 137 133 131 130 131 141 151 167 167 156 171 160 198
176 177 173 172 172 171 168 167 168 168 169 172 176 163 155 154 152 156 171 163 162 155 160 160 154 150 152 149 148 146 144 139 134 139 152 165 167 170 168 176 191 199
178 174 173 172 170 168 170 168 166 169 173 172 167 166 161 158 163 168 171 165 164 163 160 153 149 152 155 156 153 156 151 153 153 160 167 173 168 168 188 193 214 221
171 174 174 170 169 169 168 169 170 172 170 170 174 165 158 157 159 164 164 167 157 161 159 157 159 169 169 166 162 165 163 162 165 173 178 185 189 197 220 220 238 238
175 174 175 171 170 172 172 170 169 169 172 174 175 167 156 156 163 172 178 174 170 170 165 166 174 175 178 178 175 170 171 169 172 183 184 183 188 204 223 224 231 240
176 179 174 178 178 171 171 170 170 170 175 177 171 164 163 163 170 177 185 186 183 178 177 181 182 180 188 195 193 183 168 172 177 189 190 192 202 203 212 218 237 235
182 178 180 180 173 177 173 171 165 169 176 177 171 167 171 165 180 190 188 189 188 186 187 190 187 188 195 203 200 194 178 172 178 186 195 204 208 215 218 212 220 231
181 181 181 178 181 176 169 163 166 174 180 178 183 180 160 176 193 185 194 193 191 190 197 196 190 195 201 206 203 196 190 178 182 191 199 208 213 213 214 217 215 222
181 180 183 184 179 173 167 172 175 186 186 183 172 164 179 189 191 194 195 197 199 198 198 196 195 202 205 208 205 202 204 198 174 192 209 213 221 217 216 216 215 214
184 185 186 181 177 174 175 179 184 186 184 183 180 184 185 192 192 195 201 200 202 198 196 201 207 203 208 211 209 207 210 212 166 190 206 221 223 228 224 225 221 218
186 187 186 182 179 178 180 185 189 191 188 182 181 190 198 194 208 202 201 203 200 192 194 211 215 207 209 211 210 210 212 202 171 187 206 217 224 224 229 226 221 220
187 186 187 184 180 180 189 193 192 194 191 174 184 194 193 201 203 201 202 198 195 196 199 213 212 212 210 210 210 211 211 186 184 191 207 218 229 230 231 228 217 221
185 185 186 186 185 193 196 199 196 191 191 181 188 192 199 205 196 199 204 198 198 202 201 202 213 211 211 210 209 211 205 183 190 190 216 225 232 240 235 235 229 229
187 188 192 192 195 201 198 196 194 194 184 176 200 201 209 191 188 201 207 210 210 209 203 207 215 211 212 212 210 211 209 177 187 192 213 224 226 235 235 229 235 236
187 190 194 194 200 200 197 201 188 166 180 189 200 202 200 190 194 204 209 216 209 209 214 213 212 216 216 215 212 211 211 184 178 188 219 222 216 224 227 236 229 232